EW1675 Weather Reports


time (UTC)temp
F
wind
direction
speed
knots
gust
knots
rain 1hr
in
rain 24hr
in
rain mn
in
humidity
%
barometer
mb
20260831152044 83 321 0.9 4.3 0.00 0.26 0.00 81 1020.2
20260831151002 83 293 0.9 3.5 0.00 0.26 0.00 81 1020.3
20260831150002 82 293 0.9 3.5 0.00 0.26 0.00 81 1020.4
20260831145002 82 326 0.0 1.7 0.00 0.26 0.00 83 1020.5
20260831144044 81 183 0.9 3.5 0.00 0.26 0.00 83 1020.5
20260831143002 80 332 1.7 4.3 0.00 0.26 0.00 83 1020.4
20260831142023 80 303 0.9 3.5 0.00 0.26 0.00 84 1020.2
20260831141045 79 319 0.9 4.3 0.00 0.26 0.00 89 1020.2
20260831140003 78 330 0.9 3.5 0.00 0.26 0.00 91 1020.2
20260831135045 77 337 0.9 3.5 0.00 0.26 0.00 94 1020.3
20260831134045 76 341 0.9 3.5 0.00 0.26 0.00 96 1020.3
20260831133044 75 350 0.9 3.5 0.00 0.26 0.00 97 1020.3
20260831132003 74 357 0.9 4.3 0.00 0.26 0.00 98 1020.3
20260831131044 74 333 0.9 3.5 0.00 0.26 0.00 98 1020.2
20260831130002 74 331 0.9 4.3 0.00 0.26 0.00 98 1020.2
20260831125024 73 340 0.9 7.0 0.00 0.26 0.00 98 1020.3
20260831124002 72 334 0.9 2.6 0.00 0.26 0.00 98 1020.2
20260831123002 72 322 0.9 1.7 0.00 0.26 0.00 98 1020.3
20260831122002 72 321 0.0 1.7 0.00 0.26 0.00 98 1020.1
20260831121044 71 320 0.0 1.7 0.00 0.26 0.00 98 1019.9
20260831120106 71 28 0.0 3.5 0.00 0.26 0.00 98 1019.9
20260831115002 70 138 0.0 0.9 0.00 0.26 0.00 97 1019.8
20260831114045 70 0 0.0 0.0 0.00 0.26 0.00 97 1019.8
20260831113045 69 0 0.0 0.0 0.00 0.26 0.00 97 1019.8
20260831112003 69 138 0.0 0.9 0.00 0.26 0.00 97 1019.6
20260831111003 69 0 0.0 0.0 0.00 0.26 0.00 97 1019.6
20260831110003 69 0 0.0 0.0 0.00 0.26 0.00 97 1019.4
20260831105003 69 0 0.0 0.0 0.00 0.26 0.00 97 1019.3
20260831104024 69 0 0.0 0.0 0.00 0.26 0.00 96 1019.2
20260831103024 69 0 0.0 0.0 0.00 0.26 0.00 96 1019.1
20260831102003 69 0 0.0 0.0 0.00 0.26 0.00 97 1019.0
20260831101001 69 138 0.0 0.9 0.00 0.26 0.00 97 1019.1
20260831100000 69 0 0.0 0.0 0.00 0.26 0.00 97 1019.2
20260831095000 69 0 0.0 0.0 0.00 0.26 0.00 97 1019.0
20260831094001 69 0 0.0 0.0 0.00 0.26 0.00 96 1019.1
20260831093001 69 0 0.0 0.0 0.00 0.26 0.00 96 1019.1
20260831092001 69 0 0.0 0.0 0.00 0.26 0.00 96 1019.0
20260831091001 69 0 0.0 0.0 0.00 0.26 0.00 96 1019.0
20260831090022 69 0 0.0 0.0 0.00 0.26 0.00 96 1019.0
20260831085022 70 0 0.0 0.0 0.00 0.26 0.00 96 1019.0
20260831084022 69 0 0.0 0.0 0.00 0.26 0.00 96 1019.1
20260831083001 69 0 0.0 0.0 0.00 0.26 0.00 96 1018.9
20260831082022 69 0 0.0 0.0 0.00 0.26 0.00 96 1018.9
20260831081022 70 0 0.0 0.0 0.00 0.26 0.00 96 1018.7
20260831080001 70 0 0.0 0.0 0.00 0.26 0.00 96 1018.6
20260831075022 70 0 0.0 0.0 0.00 0.26 0.00 96 1018.6
20260831074001 70 0 0.0 0.0 0.00 0.26 0.00 96 1018.7
20260831073001 70 0 0.0 0.0 0.00 0.26 0.00 96 1018.7
20260831072022 70 0 0.0 0.0 0.00 0.26 0.00 96 1018.7
20260831071001 70 138 0.0 1.7 0.00 0.26 0.00 96 1018.8
20260831070001 70 138 0.0 0.9 0.00 0.26 0.00 96 1018.7
20260831065022 70 0 0.0 0.0 0.00 0.26 0.00 96 1018.9
20260831064022 70 0 0.0 0.0 0.00 0.26 0.00 96 1018.9
20260831063001 70 0 0.0 0.0 0.00 0.26 0.00 96 1018.9
20260831062104 70 0 0.0 0.0 0.00 0.26 0.00 96 1019.0
20260831061001 70 0 0.0 0.0 0.00 0.26 0.00 96 1019.0
20260831060001 70 0 0.0 0.0 0.00 0.26 0.00 96 1019.0
20260831055001 70 0 0.0 0.0 0.00 0.26 0.00 96 1019.2
20260831054001 71 0 0.0 0.0 0.00 0.26 0.00 96 1019.2
20260831053001 71 0 0.0 0.0 0.00 0.26 0.00 96 1019.2
20260831052001 71 138 0.0 0.9 0.00 0.26 0.00 96 1019.3
20260831051043 71 138 0.0 0.9 0.00 0.26 0.00 96 1019.3
20260831050001 71 0 0.0 0.0 0.00 0.26 0.00 96 1019.4
20260831045001 71 0 0.0 0.0 0.00 0.26 0.00 96 1019.4
20260831044001 71 0 0.0 0.0 0.00 0.26 0.00 96 1019.5
20260831043022 71 0 0.0 0.0 0.00 0.26 0.00 96 1019.4
20260831042043 71 0 0.0 0.0 0.00 0.26 0.00 96 1019.5
20260831041001 71 0 0.0 0.0 0.00 0.26 0.00 96 1019.6
20260831040023 71 0 0.0 0.0 0.00 0.26 0.00 96 1019.7
20260831035001 71 0 0.0 0.0 0.00 0.26 0.26 96 1019.7
20260831034043 71 0 0.0 0.0 0.00 0.26 0.26 95 1019.6
20260831033043 71 0 0.0 0.0 0.00 0.26 0.26 95 1019.7
20260831032001 71 0 0.0 0.0 0.00 0.26 0.26 95 1019.8
20260831031001 71 0 0.0 0.0 0.00 0.26 0.26 95 1019.7
20260831030001 71 0 0.0 0.0 0.00 0.26 0.26 95 1019.6
20260831025001 71 0 0.0 0.0 0.00 0.26 0.26 95 1019.7
20260831024022 71 0 0.0 0.0 0.00 0.26 0.26 95 1019.8
20260831023022 71 0 0.0 0.0 0.00 0.26 0.26 95 1019.9
20260831022022 71 0 0.0 0.0 0.00 0.26 0.26 95 1019.9
20260831021001 71 0 0.0 0.0 0.00 0.26 0.26 95 1020.0
20260831020001 71 0 0.0 0.0 0.00 0.26 0.26 94 1020.0
20260831015043 71 0 0.0 0.0 0.00 0.26 0.26 94 1020.2
20260831014044 71 0 0.0 0.0 0.00 0.26 0.26 94 1020.2
20260831013001 72 0 0.0 0.0 0.00 0.26 0.26 94 1020.1
20260831012022 72 0 0.0 0.0 0.00 0.26 0.26 94 1019.9
20260831011023 72 138 0.0 1.7 0.00 0.26 0.26 94 1019.9
20260831010022 72 140 0.9 2.6 0.00 0.26 0.26 94 1019.8
20260831005002 72 100 1.7 3.5 0.00 0.26 0.26 94 1019.6
20260831004001 72 104 1.7 2.6 0.00 0.26 0.26 94 1019.7
20260831003001 72 120 0.9 2.6 0.01 0.26 0.26 93 1019.5
20260831002044 72 129 0.9 2.6 0.01 0.26 0.26 93 1019.4
20260831001022 72 104 0.0 2.6 0.01 0.26 0.26 92 1019.4
20260831000044 72 85 0.9 2.6 0.01 0.26 0.26 92 1019.3
20260830235022 73 7 0.9 4.3 0.01 0.26 0.26 91 1019.3
20260830234001 73 14 2.6 10.4 0.01 0.26 0.26 89 1019.7
20260830233023 74 344 2.6 7.8 0.00 0.25 0.25 91 1020.2
20260830232023 74 62 0.0 2.6 0.00 0.25 0.25 92 1020.1
20260830231001 74 90 0.9 3.5 0.01 0.25 0.25 92 1019.1
20260830230044 74 112 0.9 2.6 0.01 0.25 0.25 91 1019.0
20260830225044 74 102 0.9 3.5 0.04 0.25 0.25 91 1019.1
20260830224002 74 116 0.9 6.1 0.22 0.25 0.25 90 1019.2
20260830223002 75 100 1.7 7.0 0.25 0.25 0.25 89 1019.1
20260830222023 76 128 1.7 7.8 0.25 0.25 0.25 88 1019.4
20260830221002 77 66 0.9 3.5 0.24 0.24 0.24 86 1018.8
20260830220002 78 80 1.7 7.8 0.24 0.24 0.24 83 1018.9
20260830215023 81 141 1.7 9.6 0.21 0.21 0.22 78 1018.6
20260830214044 84 165 0.0 5.2 0.03 0.03 0.03 79 1018.8
20260830213002 85 153 0.9 3.5 0.00 0.00 0.00 75 1018.8
20260830212105 85 163 0.9 3.5 0.00 0.00 0.00 73 1018.7
20260830211023 86 118 0.9 4.3 0.00 0.00 0.00 72 1018.6
20260830210002 86 114 0.9 3.5 0.00 0.00 0.00 71 1018.5
20260830205002 86 111 0.9 5.2 0.00 0.00 0.00 70 1018.6
20260830204002 86 129 0.0 1.7 0.00 0.00 0.00 70 1018.5
20260830203002 86 97 0.9 4.3 0.00 0.00 0.00 68 1018.7
20260830202002 87 130 0.9 6.1 0.00 0.00 0.00 68 1018.8
20260830201023 88 148 1.7 5.2 0.00 0.00 0.00 65 1018.9
20260830200023 89 143 0.9 4.3 0.00 0.00 0.00 65 1018.8
20260830195023 89 157 1.7 6.1 0.00 0.00 0.00 67 1018.9
20260830194105 89 179 1.7 5.2 0.00 0.00 0.00 65 1019.2
20260830193023 89 155 1.7 6.1 0.00 0.00 0.00 66 1019.2
20260830192023 88 117 1.7 7.8 0.00 0.00 0.00 67 1019.2
20260830191023 88 128 0.9 4.3 0.00 0.00 0.00 66 1019.4
20260830190023 88 143 0.9 4.3 0.00 0.00 0.00 67 1019.9
20260830185044 88 140 1.7 4.3 0.00 0.00 0.00 70 1020.0
20260830184044 88 137 1.7 6.1 0.00 0.00 0.00 70 1020.2
20260830183002 88 117 1.7 6.1 0.00 0.00 0.00 66 1020.3
20260830182044 88 133 1.7 7.0 0.00 0.00 0.00 66 1020.5
20260830181105 88 157 1.7 8.7 0.00 0.00 0.00 68 1020.7
20260830180002 88 132 1.7 9.6 0.00 0.00 0.00 68 1021.0
20260830175002 87 143 1.7 7.8 0.00 0.00 0.00 69 1021.4
20260830174023 86 150 1.7 7.0 0.00 0.00 0.00 69 1021.5
20260830173002 86 136 1.7 6.1 0.00 0.00 0.00 70 1021.5
20260830172002 85 147 1.7 5.2 0.00 0.00 0.00 74 1021.7
20260830171002 84 140 1.7 7.8 0.00 0.00 0.00 75 1021.8
20260830170002 83 163 1.7 5.2 0.00 0.00 0.00 76 1022.0
20260830165002 81 176 0.9 3.5 0.00 0.00 0.00 81 1022.1
20260830164002 80 193 0.0 1.7 0.00 0.00 0.00 79 1022.3
20260830163002 80 176 0.9 3.5 0.00 0.00 0.00 79 1022.3
20260830162023 81 158 1.7 5.2 0.00 0.00 0.00 78 1022.3
20260830161044 81 153 1.7 4.3 0.00 0.00 0.00 78 1022.3
20260830160023 82 161 1.7 4.3 0.00 0.00 0.00 78 1022.4
20260830155023 82 130 1.7 4.3 0.00 0.00 0.00 77 1022.5
20260830154023 81 158 1.7 7.0 0.00 0.00 0.00 79 1022.5
20260830153002 81 168 1.7 7.0 0.00 0.00 0.00 80 1022.4